GEFSNGP_prec_meanprecacc_318.txt.gz
Total_Precipitation_Accumulation
0.18 0.25 0.28 0.32 0.28 0.21 0.18 0.18 0.31 0.39 0.55 0.67 0.67 0.77 1.04 0.89 0.78 0.70 0.69 0.61 0.58 0.67 0.83 0.94 0.98 0.97 1.07 1.21 1.34 1.48 1.62 1.75 2.01 2.28 2.14 1.89 1.83 1.78 1.73 1.81 1.95 2.25 2.40 2.49
0.16 0.22 0.26 0.29 0.29 0.24 0.20 0.18 0.18 0.31 0.50 0.59 0.69 0.74 0.83 0.84 0.87 0.86 0.80 0.78 0.79 0.93 0.97 1.03 1.11 1.05 1.01 1.07 1.18 1.39 1.53 1.66 1.84 1.96 1.80 1.62 1.51 1.53 1.57 1.67 1.86 2.05 2.19 2.32
0.29 0.25 0.30 0.34 0.31 0.28 0.24 0.29 0.29 0.38 0.50 0.56 0.78 0.76 0.75 0.91 1.00 0.93 0.78 0.82 0.88 0.94 1.09 1.05 1.05 1.03 1.04 1.12 1.30 1.49 1.56 1.58 1.70 1.80 1.79 1.68 1.52 1.54 1.63 1.73 1.86 1.95 2.01 2.06
0.45 0.47 0.57 0.44 0.38 0.35 0.33 0.38 0.39 0.43 0.49 0.60 0.78 0.78 0.68 0.72 0.78 0.86 0.90 0.98 0.96 0.96 1.02 0.98 0.96 1.04 1.07 1.08 1.32 1.56 1.61 1.65 1.79 1.94 1.95 1.90 1.85 1.83 1.94 2.00 1.98 1.99 2.05 2.07
0.65 0.63 0.56 0.55 0.53 0.53 0.60 0.76 0.69 0.61 0.58 0.64 0.65 0.74 0.82 0.70 0.65 0.77 0.89 1.09 1.13 1.04 1.11 1.17 1.23 1.28 1.30 1.29 1.46 1.67 1.76 1.82 1.92 2.07 2.14 2.18 2.26 2.30 2.36 2.34 2.19 2.15 2.23 2.25
0.74 0.82 0.80 0.77 0.65 0.60 0.78 1.26 1.13 0.89 0.75 0.71 0.72 1.06 1.20 1.01 0.86 0.88 0.88 1.06 1.27 1.24 1.11 1.18 1.26 1.39 1.56 1.63 1.73 1.82 1.96 2.11 2.16 2.31 2.44 2.42 2.52 2.67 2.80 2.83 2.69 2.68 2.54 2.37
0.81 0.91 0.97 0.89 0.68 0.71 1.32 1.69 1.32 1.12 1.05 0.96 1.04 1.08 1.13 1.00 0.93 0.94 0.92 1.01 1.18 1.38 1.26 1.23 1.34 1.53 1.73 1.84 2.03 2.12 2.20 2.28 2.33 2.49 2.65 2.78 2.98 3.16 3.19 3.12 3.10 2.98 2.69 2.55
1.01 1.23 1.32 0.89 0.86 1.19 1.51 1.31 1.32 1.37 1.48 1.42 1.21 0.97 0.97 1.03 0.94 0.94 0.93 0.97 1.02 1.10 1.22 1.30 1.41 1.70 1.89 1.92 2.00 2.15 2.29 2.39 2.54 2.65 2.68 2.81 3.17 3.31 3.30 3.26 3.11 2.92 2.77 2.55
1.26 1.44 1.21 0.99 1.13 1.19 1.31 1.39 1.43 1.50 1.57 1.44 1.21 1.05 1.05 1.08 0.98 0.91 0.89 0.95 1.00 1.05 1.19 1.35 1.54 1.80 2.10 2.18 2.13 2.12 2.24 2.41 2.57 2.72 2.94 3.15 3.32 3.31 3.25 3.22 3.08 2.91 2.75 2.52
1.46 1.48 1.21 1.18 1.23 1.20 1.30 1.36 1.48 1.42 1.38 1.35 1.27 1.13 1.10 1.04 0.92 0.89 0.95 0.99 1.01 1.13 1.30 1.45 1.64 1.84 2.12 2.10 2.04 2.10 2.12 2.26 2.38 2.47 2.55 2.70 2.95 2.92 2.79 2.75 2.81 2.81 2.76 2.62
1.70 1.71 1.61 1.56 1.54 1.45 1.39 1.35 1.35 1.37 1.31 1.34 1.33 1.28 1.11 1.06 1.00 0.91 0.95 1.05 1.07 1.22 1.46 1.54 1.67 1.78 1.83 1.83 1.86 1.89 1.91 1.99 2.04 2.08 2.16 2.27 2.38 2.49 2.48 2.47 2.47 2.50 2.49 2.45
2.03 1.84 1.78 2.00 1.89 1.70 1.49 1.44 1.49 1.44 1.34 1.36 1.38 1.41 1.24 1.14 1.10 1.00 1.00 1.10 1.23 1.33 1.45 1.58 1.81 1.96 1.94 1.92 2.00 2.03 1.94 1.91 1.92 1.97 2.01 2.02 2.10 2.13 2.16 2.05 1.95 1.85 1.81 1.80
1.83 1.72 1.69 1.78 1.77 1.63 1.50 1.49 1.61 1.66 1.55 1.42 1.40 1.40 1.29 1.18 1.15 1.12 1.11 1.19 1.31 1.32 1.38 1.55 1.70 1.82 1.95 2.13 2.26 2.29 2.19 2.09 2.00 1.92 1.90 1.92 1.93 2.01 2.02 1.94 1.80 1.64 1.53 1.46
1.85 1.81 1.80 1.72 1.70 1.57 1.43 1.46 1.56 1.53 1.55 1.47 1.45 1.43 1.33 1.18 1.18 1.25 1.24 1.29 1.40 1.45 1.47 1.58 1.69 1.76 1.82 2.07 2.28 2.34 2.27 2.17 1.99 1.87 1.82 1.81 1.84 1.89 1.99 2.08 2.00 1.81 1.58 1.39
2.17 2.07 1.95 1.91 1.85 1.71 1.48 1.45 1.50 1.49 1.42 1.45 1.49 1.55 1.51 1.40 1.34 1.34 1.31 1.29 1.40 1.51 1.56 1.61 1.66 1.69 1.82 1.96 2.12 2.15 2.09 1.98 1.84 1.78 1.78 1.78 1.85 1.87 1.85 1.90 1.89 1.84 1.69 1.50
2.13 2.04 1.90 1.89 1.90 1.83 1.70 1.62 1.65 1.64 1.57 1.52 1.50 1.53 1.55 1.55 1.45 1.37 1.32 1.33 1.46 1.48 1.45 1.58 1.68 1.67 1.77 1.97 2.07 2.09 2.08 2.04 1.87 1.79 1.86 1.90 1.90 1.93 1.90 1.97 1.97 1.90 1.72 1.51
2.02 2.03 1.89 1.73 1.75 1.79 1.71 1.65 1.61 1.65 1.65 1.56 1.46 1.39 1.36 1.35 1.44 1.44 1.36 1.29 1.37 1.47 1.48 1.58 1.65 1.64 1.75 1.93 2.10 2.08 2.02 1.99 1.90 1.82 1.88 1.99 2.02 2.01 1.97 1.99 1.96 1.95 1.81 1.62
1.72 1.77 1.73 1.63 1.53 1.55 1.57 1.52 1.57 1.61 1.64 1.59 1.49 1.42 1.41 1.46 1.62 1.73 1.77 1.70 1.61 1.54 1.50 1.52 1.56 1.60 1.68 1.80 1.87 1.87 1.90 1.84 1.71 1.58 1.63 1.73 1.79 1.84 1.88 1.85 1.85 1.86 1.79 1.63
1.51 1.66 1.67 1.60 1.57 1.44 1.50 1.51 1.53 1.55 1.55 1.61 1.61 1.55 1.50 1.55 1.67 1.82 1.98 2.02 1.89 1.74 1.60 1.51 1.60 1.58 1.68 1.78 1.78 1.76 1.73 1.67 1.56 1.40 1.40 1.54 1.61 1.67 1.73 1.71 1.69 1.67 1.60 1.50
1.66 1.69 1.63 1.52 1.59 1.63 1.61 1.62 1.63 1.65 1.52 1.47 1.51 1.59 1.68 1.70 1.78 1.87 1.91 1.92 1.85 1.76 1.63 1.50 1.42 1.40 1.48 1.62 1.72 1.70 1.68 1.65 1.59 1.41 1.38 1.54 1.64 1.72 1.69 1.65 1.64 1.64 1.55 1.51
1.66 1.61 1.52 1.41 1.43 1.45 1.41 1.43 1.47 1.57 1.64 1.57 1.64 1.74 1.82 1.79 1.81 1.95 2.08 1.98 1.70 1.63 1.58 1.55 1.44 1.42 1.40 1.53 1.63 1.64 1.66 1.67 1.72 1.60 1.54 1.56 1.61 1.68 1.63 1.57 1.53 1.51 1.52 1.56
1.62 1.59 1.57 1.54 1.51 1.41 1.28 1.27 1.37 1.48 1.60 1.71 1.79 1.85 1.90 1.95 1.98 1.98 1.91 1.96 1.82 1.82 1.72 1.59 1.52 1.51 1.50 1.49 1.51 1.58 1.61 1.63 1.73 1.69 1.62 1.63 1.70 1.73 1.72 1.66 1.60 1.55 1.54 1.55
1.59 1.62 1.57 1.57 1.59 1.51 1.37 1.33 1.31 1.42 1.54 1.58 1.69 1.90 1.99 1.98 2.05 2.26 2.05 1.72 1.63 1.72 1.71 1.66 1.63 1.54 1.44 1.30 1.38 1.51 1.55 1.59 1.63 1.60 1.50 1.46 1.48 1.51 1.51 1.43 1.41 1.42 1.42 1.41
1.69 1.64 1.61 1.61 1.60 1.50 1.46 1.43 1.42 1.47 1.44 1.43 1.53 1.72 1.96 2.06 1.97 1.87 1.88 1.79 1.61 1.51 1.41 1.46 1.46 1.40 1.41 1.35 1.41 1.50 1.53 1.57 1.55 1.47 1.42 1.39 1.39 1.40 1.38 1.35 1.33 1.33 1.35 1.39
1.71 1.63 1.56 1.57 1.62 1.60 1.53 1.52 1.59 1.57 1.50 1.50 1.51 1.57 1.68 1.84 1.92 1.76 1.55 1.46 1.39 1.26 1.18 1.20 1.20 1.23 1.23 1.24 1.26 1.37 1.52 1.63 1.61 1.46 1.33 1.33 1.33 1.31 1.26 1.21 1.25 1.34 1.40 1.40
1.72 1.69 1.66 1.61 1.56 1.58 1.57 1.62 1.77 1.79 1.81 1.88 1.75 1.61 1.63 1.63 1.63 1.69 1.56 1.39 1.29 1.20 1.09 1.14 1.12 1.10 1.09 1.16 1.19 1.21 1.34 1.52 1.60 1.50 1.35 1.34 1.32 1.31 1.31 1.29 1.24 1.27 1.30 1.31
1.78 1.73 1.67 1.63 1.57 1.50 1.57 1.69 1.81 1.87 1.95 2.05 2.05 1.87 1.75 1.61 1.56 1.57 1.56 1.51 1.37 1.22 1.17 1.14 1.10 1.08 1.09 1.09 1.05 1.04 1.14 1.29 1.37 1.40 1.43 1.44 1.45 1.45 1.41 1.34 1.25 1.20 1.20 1.20

GEFSNGP_prec_meanprecacc_324.txt.gz
Total_Precipitation_Accumulation
0.18 0.25 0.28 0.33 0.28 0.21 0.18 0.18 0.31 0.40 0.55 0.67 0.67 0.77 1.04 0.89 0.78 0.70 0.70 0.61 0.59 0.68 0.85 0.96 0.99 0.98 1.08 1.22 1.35 1.49 1.63 1.77 2.02 2.30 2.16 1.91 1.87 1.84 1.79 1.86 1.99 2.29 2.44 2.52
0.16 0.22 0.26 0.29 0.29 0.24 0.20 0.18 0.19 0.31 0.50 0.59 0.69 0.74 0.83 0.84 0.87 0.86 0.80 0.78 0.79 0.94 0.98 1.03 1.12 1.06 1.02 1.07 1.19 1.39 1.56 1.69 1.86 1.99 1.84 1.66 1.55 1.59 1.64 1.74 1.91 2.09 2.22 2.34
0.29 0.25 0.30 0.34 0.31 0.28 0.24 0.29 0.29 0.38 0.50 0.56 0.78 0.76 0.75 0.91 1.00 0.93 0.78 0.83 0.88 0.95 1.10 1.06 1.05 1.04 1.05 1.13 1.31 1.51 1.57 1.59 1.72 1.83 1.87 1.78 1.57 1.59 1.68 1.78 1.89 1.98 2.03 2.07
0.45 0.47 0.57 0.44 0.38 0.35 0.33 0.38 0.39 0.43 0.49 0.60 0.78 0.78 0.68 0.72 0.78 0.87 0.90 0.98 0.97 0.96 1.03 0.98 0.96 1.05 1.07 1.08 1.33 1.56 1.61 1.66 1.81 1.96 1.99 1.96 1.89 1.86 1.97 2.03 2.01 2.01 2.07 2.09
0.66 0.63 0.56 0.55 0.53 0.54 0.60 0.76 0.69 0.61 0.58 0.64 0.65 0.74 0.82 0.71 0.66 0.78 0.90 1.09 1.14 1.05 1.11 1.17 1.24 1.29 1.30 1.29 1.46 1.67 1.77 1.84 1.94 2.09 2.16 2.19 2.27 2.32 2.38 2.37 2.21 2.18 2.26 2.29
0.74 0.82 0.80 0.77 0.65 0.60 0.78 1.26 1.13 0.89 0.75 0.71 0.73 1.07 1.22 1.02 0.87 0.89 0.89 1.06 1.28 1.25 1.12 1.19 1.27 1.40 1.56 1.64 1.74 1.82 1.96 2.11 2.17 2.32 2.45 2.43 2.54 2.69 2.83 2.86 2.71 2.71 2.57 2.40
0.81 0.91 0.97 0.89 0.68 0.71 1.32 1.69 1.32 1.13 1.06 0.98 1.06 1.10 1.15 1.02 0.94 0.95 0.93 1.01 1.18 1.38 1.26 1.23 1.35 1.54 1.73 1.85 2.04 2.12 2.21 2.28 2.33 2.49 2.66 2.80 3.00 3.19 3.22 3.16 3.13 3.02 2.72 2.59
1.01 1.24 1.32 0.89 0.86 1.20 1.52 1.32 1.33 1.39 1.50 1.46 1.24 1.00 0.98 1.04 0.94 0.94 0.93 0.97 1.02 1.10 1.22 1.30 1.41 1.71 1.90 1.92 2.00 2.16 2.29 2.40 2.54 2.66 2.70 2.82 3.19 3.32 3.33 3.29 3.13 2.95 2.80 2.58
1.26 1.44 1.21 0.99 1.13 1.20 1.32 1.40 1.44 1.52 1.60 1.48 1.25 1.08 1.07 1.10 1.00 0.93 0.90 0.95 1.00 1.05 1.19 1.35 1.55 1.81 2.11 2.18 2.13 2.12 2.25 2.41 2.58 2.73 2.95 3.16 3.34 3.32 3.28 3.25 3.12 2.94 2.79 2.56
1.46 1.48 1.21 1.18 1.24 1.21 1.31 1.38 1.50 1.45 1.43 1.40 1.32 1.18 1.16 1.09 0.96 0.94 0.97 1.00 1.02 1.14 1.31 1.47 1.66 1.85 2.14 2.11 2.05 2.10 2.13 2.26 2.39 2.48 2.57 2.72 2.97 2.95 2.82 2.79 2.85 2.84 2.77 2.64
1.70 1.71 1.61 1.57 1.55 1.45 1.40 1.36 1.38 1.40 1.35 1.38 1.37 1.33 1.19 1.15 1.08 0.97 0.98 1.07 1.08 1.23 1.47 1.56 1.68 1.79 1.84 1.84 1.86 1.90 1.92 1.99 2.05 2.10 2.19 2.30 2.41 2.52 2.52 2.50 2.49 2.51 2.50 2.46
2.03 1.85 1.79 2.00 1.89 1.71 1.50 1.45 1.52 1.47 1.38 1.39 1.42 1.45 1.29 1.19 1.15 1.04 1.03 1.14 1.26 1.35 1.49 1.61 1.82 1.97 1.97 1.94 2.01 2.04 1.95 1.92 1.94 1.99 2.03 2.04 2.13 2.18 2.22 2.10 1.98 1.87 1.82 1.81
1.83 1.73 1.70 1.79 1.78 1.64 1.51 1.50 1.63 1.69 1.59 1.47 1.45 1.45 1.34 1.22 1.18 1.14 1.15 1.22 1.35 1.37 1.45 1.58 1.73 1.84 1.98 2.16 2.28 2.32 2.21 2.11 2.02 1.94 1.94 1.96 1.99 2.07 2.07 1.97 1.82 1.66 1.54 1.47
1.85 1.81 1.81 1.72 1.70 1.58 1.44 1.47 1.58 1.55 1.58 1.51 1.49 1.47 1.37 1.22 1.21 1.28 1.27 1.33 1.45 1.52 1.55 1.61 1.71 1.77 1.83 2.08 2.29 2.37 2.31 2.21 2.04 1.92 1.87 1.86 1.87 1.92 2.02 2.11 2.03 1.84 1.60 1.42
2.17 2.07 1.96 1.91 1.86 1.72 1.50 1.46 1.51 1.51 1.45 1.49 1.53 1.58 1.54 1.44 1.38 1.38 1.34 1.34 1.45 1.57 1.63 1.66 1.68 1.71 1.83 1.97 2.13 2.17 2.11 2.01 1.88 1.82 1.82 1.82 1.89 1.91 1.90 1.94 1.93 1.89 1.73 1.54
2.13 2.04 1.90 1.90 1.91 1.84 1.71 1.63 1.65 1.65 1.58 1.54 1.52 1.56 1.58 1.59 1.49 1.41 1.35 1.37 1.51 1.54 1.53 1.64 1.72 1.70 1.79 1.99 2.08 2.10 2.10 2.08 1.91 1.84 1.91 1.95 1.96 1.98 1.95 2.01 2.01 1.95 1.76 1.56
2.04 2.05 1.90 1.74 1.76 1.80 1.72 1.67 1.63 1.67 1.67 1.58 1.48 1.42 1.38 1.38 1.47 1.48 1.41 1.34 1.42 1.52 1.55 1.66 1.72 1.70 1.79 1.96 2.13 2.10 2.04 2.02 1.94 1.86 1.92 2.03 2.06 2.04 2.00 2.02 2.00 1.99 1.85 1.67
1.76 1.81 1.77 1.66 1.56 1.57 1.59 1.54 1.58 1.63 1.66 1.61 1.51 1.43 1.43 1.49 1.66 1.78 1.84 1.78 1.66 1.58 1.55 1.57 1.61 1.64 1.71 1.83 1.90 1.89 1.92 1.86 1.73 1.59 1.66 1.76 1.82 1.86 1.89 1.86 1.88 1.88 1.81 1.65
1.58 1.70 1.72 1.64 1.61 1.47 1.52 1.52 1.54 1.57 1.57 1.63 1.63 1.57 1.53 1.59 1.71 1.87 2.04 2.07 1.94 1.79 1.66 1.56 1.63 1.60 1.70 1.80 1.80 1.78 1.75 1.69 1.57 1.42 1.42 1.56 1.62 1.68 1.74 1.73 1.71 1.69 1.62 1.52
1.71 1.73 1.67 1.56 1.62 1.66 1.63 1.64 1.64 1.67 1.54 1.48 1.54 1.62 1.71 1.74 1.83 1.92 1.96 1.96 1.91 1.83 1.69 1.55 1.45 1.43 1.51 1.65 1.75 1.72 1.69 1.67 1.61 1.43 1.40 1.56 1.65 1.74 1.72 1.67 1.67 1.66 1.57 1.53
1.69 1.64 1.54 1.43 1.45 1.48 1.43 1.45 1.48 1.59 1.66 1.60 1.66 1.77 1.85 1.82 1.85 1.99 2.13 2.02 1.74 1.68 1.62 1.61 1.50 1.47 1.45 1.57 1.66 1.67 1.67 1.68 1.74 1.62 1.56 1.58 1.64 1.71 1.66 1.60 1.56 1.53 1.54 1.57
1.65 1.61 1.59 1.56 1.53 1.43 1.28 1.27 1.38 1.49 1.61 1.72 1.80 1.87 1.93 1.97 2.01 2.01 1.95 2.00 1.86 1.87 1.76 1.62 1.55 1.56 1.55 1.53 1.55 1.63 1.65 1.67 1.76 1.72 1.66 1.66 1.73 1.77 1.76 1.70 1.63 1.57 1.55 1.57
1.61 1.64 1.59 1.58 1.61 1.53 1.39 1.34 1.32 1.44 1.55 1.60 1.70 1.92 2.02 2.01 2.09 2.30 2.09 1.75 1.66 1.75 1.73 1.68 1.65 1.58 1.49 1.35 1.43 1.57 1.61 1.65 1.66 1.63 1.53 1.50 1.52 1.56 1.55 1.47 1.44 1.45 1.44 1.43
1.71 1.65 1.62 1.62 1.61 1.52 1.49 1.46 1.45 1.49 1.46 1.45 1.54 1.74 1.97 2.07 1.99 1.89 1.90 1.80 1.63 1.53 1.43 1.48 1.49 1.44 1.45 1.38 1.46 1.56 1.60 1.64 1.61 1.52 1.46 1.43 1.43 1.45 1.42 1.39 1.37 1.36 1.37 1.41
1.73 1.65 1.58 1.58 1.63 1.62 1.56 1.55 1.60 1.59 1.53 1.53 1.53 1.59 1.70 1.86 1.95 1.79 1.57 1.48 1.41 1.28 1.20 1.23 1.23 1.27 1.27 1.28 1.30 1.40 1.56 1.68 1.66 1.50 1.38 1.37 1.36 1.34 1.30 1.26 1.29 1.37 1.42 1.42
1.73 1.71 1.67 1.62 1.58 1.60 1.60 1.65 1.80 1.81 1.83 1.90 1.78 1.64 1.66 1.66 1.66 1.72 1.60 1.41 1.31 1.22 1.10 1.15 1.14 1.12 1.12 1.19 1.21 1.24 1.37 1.56 1.63 1.54 1.38 1.37 1.35 1.34 1.34 1.32 1.27 1.29 1.33 1.33
1.79 1.74 1.68 1.64 1.59 1.52 1.60 1.72 1.83 1.89 1.98 2.08 2.08 1.91 1.78 1.64 1.60 1.62 1.61 1.55 1.41 1.26 1.19 1.17 1.13 1.11 1.11 1.12 1.08 1.07 1.17 1.32 1.40 1.43 1.46 1.48 1.48 1.48 1.44 1.37 1.28 1.22 1.22 1.22

GEFSNGP_prec_meanprecacc_330.txt.gz
Total_Precipitation_Accumulation
0.21 0.28 0.30 0.34 0.28 0.21 0.18 0.18 0.33 0.42 0.57 0.72 0.68 0.77 1.05 0.89 0.78 0.70 0.70 0.62 0.60 0.69 0.87 0.99 1.01 1.00 1.09 1.23 1.36 1.51 1.65 1.80 2.05 2.34 2.20 1.95 1.90 1.86 1.82 1.90 2.04 2.34 2.49 2.58
0.18 0.24 0.27 0.30 0.30 0.24 0.21 0.19 0.20 0.32 0.54 0.63 0.72 0.76 0.84 0.84 0.87 0.86 0.80 0.79 0.80 0.94 0.98 1.04 1.12 1.06 1.02 1.08 1.20 1.41 1.58 1.72 1.89 2.03 1.87 1.68 1.58 1.62 1.66 1.78 1.98 2.17 2.29 2.40
0.30 0.26 0.30 0.35 0.31 0.29 0.24 0.29 0.29 0.40 0.54 0.62 0.82 0.78 0.76 0.92 1.00 0.94 0.78 0.83 0.88 0.95 1.10 1.06 1.06 1.05 1.06 1.15 1.34 1.54 1.60 1.62 1.74 1.85 1.89 1.80 1.60 1.64 1.73 1.83 1.95 2.05 2.09 2.11
0.47 0.48 0.58 0.44 0.39 0.35 0.33 0.38 0.39 0.45 0.54 0.62 0.80 0.79 0.69 0.73 0.79 0.88 0.91 0.99 0.97 0.98 1.05 1.00 0.98 1.06 1.09 1.11 1.36 1.59 1.64 1.69 1.83 1.98 2.01 1.99 1.94 1.92 2.02 2.08 2.06 2.06 2.10 2.12
0.68 0.66 0.57 0.55 0.53 0.54 0.60 0.76 0.70 0.62 0.61 0.65 0.65 0.75 0.84 0.73 0.70 0.83 0.93 1.13 1.16 1.07 1.16 1.20 1.26 1.30 1.32 1.32 1.49 1.70 1.80 1.86 1.96 2.11 2.18 2.22 2.30 2.34 2.41 2.41 2.26 2.22 2.30 2.32
0.77 0.86 0.83 0.79 0.65 0.60 0.78 1.26 1.14 0.90 0.79 0.73 0.74 1.10 1.30 1.14 0.98 0.92 0.91 1.08 1.30 1.28 1.15 1.21 1.29 1.42 1.58 1.65 1.75 1.84 1.98 2.12 2.18 2.33 2.47 2.45 2.56 2.71 2.86 2.89 2.74 2.74 2.61 2.44
0.83 0.94 0.99 0.89 0.68 0.72 1.33 1.71 1.34 1.14 1.11 1.05 1.11 1.15 1.21 1.10 1.01 0.99 0.97 1.02 1.19 1.40 1.27 1.24 1.36 1.54 1.74 1.85 2.04 2.13 2.22 2.29 2.35 2.51 2.67 2.81 3.01 3.20 3.24 3.18 3.16 3.04 2.75 2.62
1.02 1.26 1.35 0.89 0.86 1.21 1.53 1.33 1.34 1.41 1.56 1.53 1.28 1.03 1.01 1.06 0.98 0.98 0.97 0.99 1.02 1.11 1.23 1.31 1.42 1.72 1.91 1.93 2.01 2.17 2.30 2.41 2.56 2.68 2.71 2.83 3.20 3.34 3.34 3.30 3.15 2.97 2.83 2.62
1.27 1.45 1.22 1.00 1.13 1.20 1.33 1.41 1.45 1.53 1.61 1.49 1.26 1.10 1.09 1.12 1.03 0.97 0.93 0.98 1.02 1.07 1.21 1.36 1.56 1.82 2.12 2.19 2.14 2.13 2.26 2.43 2.61 2.75 2.97 3.19 3.37 3.35 3.31 3.28 3.15 2.97 2.82 2.59
1.47 1.48 1.21 1.18 1.24 1.21 1.31 1.38 1.50 1.46 1.43 1.41 1.34 1.20 1.19 1.12 1.02 1.02 1.05 1.07 1.07 1.18 1.35 1.50 1.69 1.88 2.16 2.12 2.06 2.11 2.14 2.28 2.41 2.51 2.59 2.75 3.00 2.99 2.86 2.83 2.89 2.89 2.81 2.67
1.71 1.72 1.62 1.57 1.55 1.46 1.41 1.36 1.38 1.41 1.36 1.40 1.40 1.37 1.22 1.19 1.15 1.05 1.06 1.18 1.19 1.32 1.55 1.62 1.72 1.82 1.87 1.85 1.88 1.91 1.93 2.00 2.06 2.12 2.21 2.33 2.45 2.57 2.56 2.54 2.53 2.55 2.54 2.49
2.05 1.86 1.80 2.01 1.90 1.71 1.51 1.46 1.53 1.48 1.40 1.41 1.44 1.48 1.33 1.25 1.22 1.10 1.10 1.22 1.36 1.45 1.60 1.69 1.88 2.01 1.99 1.95 2.03 2.05 1.96 1.93 1.95 2.01 2.06 2.08 2.17 2.23 2.26 2.15 2.02 1.91 1.86 1.84
1.84 1.73 1.70 1.79 1.78 1.64 1.51 1.51 1.64 1.70 1.60 1.49 1.48 1.47 1.39 1.28 1.24 1.20 1.20 1.28 1.40 1.44 1.51 1.64 1.78 1.87 2.01 2.18 2.30 2.33 2.23 2.13 2.04 1.97 1.98 2.01 2.04 2.13 2.12 2.02 1.87 1.70 1.58 1.50
1.86 1.82 1.81 1.72 1.70 1.58 1.44 1.48 1.59 1.56 1.59 1.54 1.52 1.50 1.41 1.27 1.27 1.33 1.33 1.40 1.51 1.57 1.59 1.65 1.75 1.81 1.86 2.10 2.31 2.39 2.33 2.24 2.08 1.96 1.92 1.92 1.94 1.98 2.07 2.15 2.07 1.89 1.65 1.46
2.19 2.08 1.96 1.91 1.86 1.73 1.51 1.47 1.52 1.52 1.48 1.52 1.55 1.61 1.57 1.48 1.43 1.44 1.41 1.40 1.51 1.62 1.68 1.71 1.73 1.74 1.87 2.00 2.15 2.19 2.15 2.05 1.92 1.87 1.88 1.89 1.95 1.99 1.96 2.01 2.00 1.95 1.79 1.60
2.18 2.08 1.92 1.91 1.92 1.85 1.73 1.65 1.68 1.67 1.61 1.57 1.56 1.58 1.60 1.61 1.53 1.47 1.41 1.42 1.57 1.61 1.58 1.69 1.77 1.74 1.83 2.03 2.12 2.14 2.14 2.12 1.95 1.89 2.00 2.04 2.05 2.08 2.05 2.11 2.13 2.05 1.83 1.61
2.09 2.10 1.93 1.76 1.77 1.81 1.76 1.69 1.66 1.69 1.70 1.62 1.51 1.45 1.42 1.41 1.52 1.52 1.45 1.40 1.49 1.59 1.62 1.72 1.77 1.74 1.82 2.00 2.17 2.14 2.08 2.06 1.99 1.90 1.98 2.13 2.16 2.16 2.14 2.14 2.10 2.07 1.92 1.72
1.79 1.84 1.78 1.68 1.58 1.59 1.61 1.57 1.62 1.66 1.69 1.64 1.54 1.47 1.47 1.54 1.71 1.84 1.90 1.83 1.72 1.64 1.61 1.63 1.65 1.67 1.74 1.86 1.94 1.94 1.96 1.90 1.77 1.64 1.72 1.83 1.90 1.94 1.99 1.95 1.96 1.95 1.87 1.70
1.59 1.72 1.73 1.66 1.63 1.50 1.54 1.54 1.57 1.59 1.59 1.65 1.65 1.60 1.56 1.62 1.75 1.91 2.09 2.12 1.99 1.84 1.71 1.61 1.68 1.64 1.74 1.84 1.83 1.81 1.78 1.73 1.62 1.46 1.46 1.61 1.66 1.73 1.80 1.79 1.77 1.74 1.66 1.56
1.73 1.75 1.70 1.59 1.65 1.70 1.66 1.66 1.65 1.68 1.55 1.49 1.55 1.63 1.72 1.76 1.86 1.96 2.00 2.01 1.96 1.88 1.74 1.60 1.49 1.47 1.55 1.69 1.80 1.76 1.72 1.71 1.66 1.47 1.44 1.59 1.67 1.77 1.75 1.71 1.70 1.69 1.60 1.56
1.72 1.66 1.57 1.47 1.49 1.52 1.47 1.47 1.50 1.60 1.67 1.60 1.67 1.78 1.87 1.85 1.89 2.06 2.18 2.07 1.80 1.72 1.66 1.64 1.54 1.53 1.52 1.65 1.75 1.73 1.71 1.71 1.76 1.65 1.59 1.62 1.69 1.76 1.70 1.63 1.59 1.56 1.57 1.61
1.67 1.64 1.62 1.59 1.56 1.46 1.31 1.29 1.39 1.50 1.62 1.73 1.81 1.88 1.94 1.99 2.03 2.06 2.00 2.05 1.90 1.91 1.78 1.65 1.59 1.60 1.59 1.58 1.58 1.66 1.68 1.69 1.79 1.76 1.70 1.71 1.80 1.84 1.83 1.76 1.68 1.61 1.59 1.60
1.63 1.67 1.62 1.61 1.64 1.56 1.41 1.36 1.33 1.45 1.56 1.60 1.71 1.93 2.03 2.02 2.10 2.31 2.12 1.77 1.69 1.78 1.75 1.70 1.68 1.62 1.52 1.37 1.46 1.61 1.65 1.69 1.72 1.68 1.58 1.55 1.59 1.63 1.62 1.54 1.51 1.53 1.53 1.52
1.73 1.68 1.65 1.65 1.63 1.53 1.50 1.47 1.46 1.50 1.47 1.46 1.56 1.76 1.99 2.09 2.00 1.91 1.92 1.82 1.65 1.55 1.44 1.50 1.51 1.47 1.48 1.41 1.49 1.61 1.66 1.71 1.70 1.61 1.54 1.50 1.52 1.53 1.51 1.48 1.45 1.44 1.46 1.48
1.75 1.69 1.62 1.62 1.65 1.64 1.57 1.55 1.61 1.60 1.54 1.55 1.54 1.60 1.72 1.88 1.97 1.82 1.60 1.50 1.44 1.30 1.21 1.24 1.24 1.29 1.30 1.33 1.36 1.46 1.64 1.75 1.72 1.56 1.45 1.45 1.45 1.42 1.37 1.32 1.34 1.43 1.47 1.45
1.77 1.75 1.71 1.66 1.62 1.63 1.62 1.67 1.81 1.82 1.85 1.92 1.79 1.65 1.68 1.67 1.68 1.75 1.63 1.45 1.36 1.28 1.15 1.17 1.16 1.14 1.13 1.22 1.25 1.29 1.42 1.61 1.67 1.58 1.43 1.42 1.40 1.39 1.38 1.36 1.30 1.32 1.36 1.36
1.83 1.79 1.72 1.67 1.61 1.54 1.63 1.75 1.86 1.91 2.00 2.10 2.10 1.92 1.79 1.66 1.64 1.68 1.66 1.59 1.44 1.31 1.24 1.21 1.16 1.13 1.14 1.14 1.11 1.10 1.20 1.35 1.43 1.46 1.50 1.51 1.52 1.51 1.46 1.39 1.30 1.25 1.26 1.26

GEFSNGP_prec_meanprecacc_336.txt.gz
Total_Precipitation_Accumulation
0.21 0.28 0.31 0.35 0.29 0.23 0.21 0.21 0.35 0.44 0.59 0.75 0.72 0.81 1.08 0.95 0.86 0.81 0.80 0.71 0.66 0.76 0.93 1.03 1.05 1.05 1.17 1.32 1.43 1.56 1.68 1.83 2.09 2.38 2.24 1.98 1.93 1.89 1.85 1.93 2.07 2.38 2.54 2.62
0.19 0.25 0.28 0.31 0.31 0.26 0.22 0.21 0.22 0.34 0.56 0.67 0.77 0.80 0.89 0.90 0.95 0.96 0.87 0.84 0.86 1.00 1.03 1.08 1.18 1.14 1.13 1.18 1.27 1.45 1.61 1.75 1.92 2.06 1.91 1.72 1.61 1.67 1.72 1.84 2.03 2.22 2.36 2.47
0.31 0.27 0.31 0.36 0.32 0.30 0.25 0.31 0.31 0.42 0.59 0.67 0.88 0.82 0.83 1.01 1.07 0.99 0.83 0.87 0.92 0.99 1.14 1.11 1.14 1.16 1.16 1.21 1.38 1.57 1.62 1.64 1.77 1.88 1.93 1.84 1.63 1.67 1.78 1.90 2.03 2.11 2.16 2.18
0.47 0.49 0.59 0.45 0.39 0.36 0.34 0.39 0.40 0.47 0.58 0.68 0.89 0.88 0.75 0.80 0.86 0.94 0.97 1.04 1.01 1.02 1.10 1.07 1.07 1.14 1.15 1.14 1.39 1.63 1.67 1.71 1.85 2.00 2.03 2.01 1.97 1.94 2.05 2.14 2.13 2.14 2.19 2.19
0.68 0.67 0.59 0.56 0.53 0.54 0.61 0.79 0.71 0.63 0.64 0.69 0.73 0.86 0.91 0.80 0.78 0.93 1.01 1.19 1.21 1.13 1.22 1.31 1.35 1.36 1.37 1.35 1.52 1.74 1.83 1.88 1.99 2.14 2.21 2.25 2.33 2.36 2.44 2.44 2.29 2.27 2.37 2.40
0.78 0.87 0.85 0.80 0.66 0.61 0.80 1.32 1.17 0.92 0.81 0.76 0.83 1.23 1.43 1.24 1.08 1.06 0.99 1.16 1.37 1.34 1.21 1.27 1.32 1.45 1.62 1.69 1.77 1.86 1.99 2.14 2.20 2.36 2.50 2.47 2.57 2.72 2.88 2.91 2.76 2.77 2.65 2.50
0.85 0.97 1.02 0.90 0.69 0.73 1.37 1.76 1.37 1.18 1.14 1.09 1.20 1.23 1.27 1.15 1.08 1.07 1.05 1.11 1.26 1.45 1.30 1.27 1.39 1.58 1.77 1.87 2.06 2.14 2.22 2.30 2.36 2.52 2.68 2.82 3.03 3.22 3.26 3.19 3.18 3.07 2.80 2.67
1.06 1.28 1.36 0.91 0.88 1.23 1.56 1.35 1.35 1.43 1.58 1.56 1.32 1.07 1.03 1.08 1.03 1.09 1.08 1.10 1.14 1.18 1.26 1.34 1.46 1.76 1.94 1.95 2.03 2.19 2.32 2.42 2.57 2.69 2.72 2.84 3.22 3.36 3.37 3.33 3.19 3.01 2.87 2.65
1.28 1.47 1.26 1.07 1.17 1.22 1.34 1.42 1.46 1.55 1.64 1.51 1.28 1.11 1.10 1.14 1.05 1.03 1.03 1.09 1.12 1.14 1.27 1.42 1.63 1.87 2.16 2.23 2.18 2.17 2.29 2.45 2.62 2.77 2.98 3.20 3.38 3.37 3.33 3.32 3.18 3.01 2.85 2.61
1.48 1.50 1.24 1.20 1.26 1.22 1.32 1.39 1.51 1.48 1.47 1.44 1.35 1.21 1.19 1.13 1.04 1.07 1.11 1.11 1.13 1.28 1.46 1.60 1.77 1.95 2.22 2.18 2.11 2.16 2.17 2.30 2.43 2.53 2.61 2.76 3.02 3.01 2.89 2.86 2.91 2.91 2.83 2.68
1.72 1.73 1.64 1.61 1.60 1.48 1.42 1.38 1.40 1.43 1.38 1.41 1.41 1.37 1.23 1.20 1.16 1.07 1.08 1.21 1.25 1.44 1.74 1.82 1.84 1.90 1.94 1.92 1.94 1.95 1.96 2.03 2.08 2.14 2.23 2.35 2.46 2.58 2.57 2.56 2.55 2.57 2.56 2.51
2.06 1.87 1.82 2.03 1.93 1.75 1.54 1.49 1.55 1.51 1.42 1.43 1.46 1.50 1.34 1.26 1.24 1.13 1.14 1.26 1.40 1.49 1.67 1.80 1.97 2.09 2.09 2.02 2.07 2.08 1.98 1.95 1.97 2.03 2.08 2.10 2.19 2.25 2.27 2.16 2.04 1.93 1.88 1.87
1.86 1.75 1.72 1.82 1.81 1.68 1.56 1.56 1.68 1.73 1.62 1.50 1.49 1.49 1.40 1.29 1.26 1.23 1.24 1.31 1.43 1.46 1.54 1.68 1.83 1.95 2.13 2.27 2.35 2.37 2.25 2.15 2.06 2.00 2.01 2.03 2.06 2.14 2.13 2.03 1.89 1.72 1.61 1.53
1.88 1.84 1.85 1.77 1.74 1.60 1.47 1.51 1.62 1.59 1.62 1.56 1.54 1.52 1.43 1.29 1.29 1.35 1.36 1.44 1.56 1.61 1.63 1.69 1.82 1.89 1.99 2.24 2.40 2.44 2.37 2.28 2.11 1.99 1.95 1.95 1.97 2.01 2.10 2.18 2.10 1.91 1.68 1.49
2.22 2.11 1.99 1.96 1.89 1.75 1.53 1.48 1.53 1.54 1.49 1.53 1.58 1.64 1.60 1.51 1.46 1.46 1.44 1.46 1.59 1.69 1.75 1.80 1.82 1.84 1.98 2.12 2.25 2.28 2.21 2.09 1.95 1.90 1.91 1.92 1.99 2.03 2.01 2.07 2.05 1.99 1.83 1.65
2.19 2.10 1.95 1.94 1.96 1.91 1.79 1.69 1.71 1.69 1.63 1.61 1.63 1.66 1.66 1.66 1.57 1.51 1.46 1.49 1.66 1.70 1.66 1.77 1.86 1.84 1.95 2.16 2.24 2.24 2.22 2.17 1.99 1.92 2.03 2.08 2.09 2.13 2.11 2.19 2.21 2.12 1.90 1.68
2.11 2.12 1.95 1.80 1.82 1.86 1.80 1.72 1.68 1.71 1.72 1.65 1.56 1.51 1.47 1.48 1.61 1.61 1.53 1.49 1.58 1.69 1.71 1.81 1.87 1.85 1.94 2.10 2.28 2.24 2.14 2.10 2.02 1.93 2.01 2.16 2.19 2.21 2.20 2.23 2.21 2.18 2.01 1.83
1.81 1.88 1.82 1.72 1.61 1.61 1.64 1.59 1.64 1.69 1.72 1.67 1.57 1.51 1.52 1.60 1.80 1.94 2.00 1.94 1.82 1.73 1.70 1.72 1.77 1.80 1.86 1.96 2.02 2.01 2.01 1.94 1.81 1.67 1.75 1.86 1.94 1.99 2.05 2.04 2.06 2.05 1.96 1.79
1.64 1.76 1.76 1.68 1.65 1.51 1.56 1.56 1.58 1.61 1.61 1.68 1.68 1.63 1.59 1.66 1.79 1.96 2.15 2.20 2.07 1.93 1.81 1.73 1.81 1.75 1.82 1.90 1.88 1.85 1.82 1.77 1.66 1.50 1.50 1.65 1.71 1.77 1.86 1.85 1.83 1.80 1.72 1.64
1.79 1.85 1.75 1.61 1.68 1.72 1.69 1.68 1.66 1.69 1.57 1.53 1.57 1.65 1.75 1.79 1.88 1.98 2.03 2.06 2.06 2.00 1.89 1.74 1.60 1.56 1.62 1.74 1.83 1.79 1.75 1.73 1.69 1.48 1.45 1.61 1.70 1.80 1.80 1.77 1.78 1.75 1.65 1.62
1.75 1.72 1.65 1.51 1.52 1.54 1.49 1.50 1.52 1.63 1.71 1.63 1.69 1.81 1.89 1.87 1.91 2.08 2.21 2.11 1.84 1.78 1.73 1.71 1.59 1.57 1.56 1.68 1.78 1.75 1.73 1.73 1.78 1.66 1.61 1.64 1.72 1.79 1.75 1.68 1.65 1.63 1.64 1.67
1.70 1.66 1.65 1.62 1.59 1.51 1.38 1.34 1.41 1.52 1.64 1.75 1.83 1.90 1.95 2.00 2.04 2.07 2.02 2.06 1.92 1.93 1.81 1.66 1.60 1.61 1.61 1.59 1.59 1.67 1.70 1.72 1.81 1.78 1.73 1.75 1.85 1.90 1.91 1.83 1.76 1.69 1.67 1.68
1.66 1.69 1.64 1.64 1.68 1.61 1.46 1.40 1.36 1.47 1.58 1.62 1.72 1.94 2.04 2.03 2.10 2.32 2.12 1.78 1.69 1.79 1.75 1.70 1.69 1.63 1.53 1.38 1.46 1.61 1.66 1.71 1.74 1.70 1.62 1.60 1.62 1.66 1.66 1.58 1.56 1.58 1.58 1.57
1.74 1.69 1.66 1.65 1.64 1.55 1.51 1.48 1.46 1.51 1.48 1.47 1.56 1.76 2.00 2.09 2.01 1.91 1.92 1.83 1.66 1.55 1.45 1.51 1.52 1.48 1.49 1.41 1.50 1.62 1.67 1.72 1.72 1.63 1.57 1.53 1.54 1.56 1.54 1.51 1.49 1.49 1.50 1.53
1.76 1.69 1.63 1.63 1.67 1.66 1.58 1.56 1.62 1.61 1.55 1.55 1.55 1.61 1.73 1.89 1.98 1.82 1.60 1.51 1.45 1.31 1.22 1.24 1.25 1.29 1.31 1.33 1.36 1.47 1.64 1.76 1.74 1.59 1.48 1.48 1.49 1.46 1.41 1.36 1.39 1.48 1.51 1.49
1.79 1.77 1.73 1.68 1.65 1.66 1.64 1.68 1.83 1.84 1.87 1.93 1.80 1.66 1.69 1.69 1.70 1.76 1.65 1.47 1.37 1.29 1.16 1.18 1.16 1.15 1.14 1.23 1.26 1.30 1.44 1.63 1.70 1.61 1.46 1.45 1.44 1.43 1.42 1.40 1.33 1.35 1.38 1.38
1.86 1.82 1.76 1.70 1.64 1.56 1.65 1.76 1.87 1.93 2.02 2.11 2.11 1.93 1.80 1.67 1.65 1.69 1.67 1.61 1.46 1.33 1.27 1.23 1.19 1.16 1.15 1.15 1.12 1.12 1.22 1.38 1.46 1.49 1.52 1.53 1.54 1.55 1.50 1.42 1.33 1.28 1.29 1.29

GEFSNGP_prec_meanprecacc_342.txt.gz
Total_Precipitation_Accumulation
0.22 0.28 0.31 0.36 0.31 0.26 0.22 0.22 0.37 0.45 0.60 0.75 0.73 0.83 1.12 0.97 0.88 0.83 0.81 0.72 0.67 0.79 0.98 1.09 1.11 1.10 1.22 1.37 1.50 1.61 1.72 1.86 2.12 2.40 2.26 2.00 1.94 1.91 1.87 1.96 2.10 2.40 2.57 2.67
0.19 0.25 0.28 0.31 0.32 0.28 0.23 0.21 0.22 0.35 0.57 0.67 0.78 0.82 0.93 0.93 0.97 0.99 0.90 0.86 0.88 1.04 1.07 1.13 1.23 1.21 1.20 1.24 1.33 1.51 1.66 1.79 1.96 2.09 1.94 1.74 1.63 1.68 1.75 1.88 2.07 2.26 2.39 2.51
0.31 0.27 0.32 0.36 0.32 0.30 0.26 0.31 0.31 0.42 0.60 0.68 0.90 0.86 0.87 1.04 1.10 1.02 0.86 0.89 0.94 1.02 1.20 1.18 1.22 1.25 1.23 1.27 1.46 1.63 1.67 1.68 1.80 1.91 1.96 1.86 1.65 1.70 1.82 1.95 2.07 2.15 2.20 2.23
0.47 0.49 0.59 0.46 0.39 0.36 0.34 0.39 0.40 0.47 0.59 0.69 0.91 0.91 0.78 0.84 0.90 0.97 0.99 1.07 1.05 1.05 1.16 1.14 1.13 1.20 1.21 1.21 1.47 1.70 1.72 1.76 1.88 2.02 2.05 2.03 1.99 1.97 2.08 2.18 2.18 2.19 2.26 2.28
0.68 0.67 0.59 0.56 0.54 0.54 0.62 0.79 0.72 0.64 0.64 0.69 0.75 0.88 0.93 0.85 0.83 0.97 1.06 1.25 1.26 1.17 1.28 1.36 1.39 1.40 1.43 1.42 1.58 1.80 1.88 1.92 2.02 2.17 2.23 2.27 2.35 2.38 2.46 2.46 2.33 2.31 2.42 2.49
0.79 0.87 0.85 0.80 0.67 0.61 0.81 1.32 1.18 0.93 0.81 0.77 0.85 1.27 1.46 1.28 1.11 1.09 1.04 1.21 1.42 1.39 1.27 1.33 1.38 1.53 1.69 1.75 1.83 1.90 2.04 2.18 2.23 2.39 2.52 2.50 2.60 2.75 2.90 2.93 2.79 2.80 2.68 2.54
0.85 0.97 1.02 0.91 0.69 0.74 1.38 1.76 1.38 1.19 1.15 1.10 1.22 1.28 1.30 1.18 1.11 1.11 1.09 1.14 1.30 1.50 1.37 1.35 1.46 1.64 1.83 1.94 2.11 2.19 2.27 2.35 2.39 2.54 2.70 2.83 3.04 3.24 3.28 3.22 3.21 3.10 2.82 2.69
1.06 1.29 1.36 0.91 0.88 1.23 1.56 1.35 1.36 1.44 1.60 1.58 1.35 1.11 1.07 1.11 1.06 1.13 1.12 1.14 1.18 1.23 1.32 1.40 1.54 1.83 2.00 2.01 2.08 2.24 2.37 2.47 2.61 2.71 2.74 2.86 3.24 3.38 3.40 3.36 3.22 3.04 2.89 2.66
1.28 1.47 1.26 1.07 1.18 1.22 1.35 1.42 1.47 1.57 1.66 1.53 1.31 1.16 1.14 1.17 1.08 1.07 1.07 1.12 1.15 1.17 1.31 1.48 1.72 1.97 2.24 2.29 2.23 2.22 2.34 2.50 2.66 2.80 3.01 3.23 3.42 3.42 3.40 3.38 3.22 3.03 2.86 2.62
1.49 1.51 1.25 1.21 1.27 1.23 1.33 1.40 1.52 1.49 1.49 1.46 1.38 1.24 1.23 1.16 1.06 1.10 1.14 1.14 1.16 1.30 1.50 1.66 1.88 2.03 2.29 2.24 2.17 2.21 2.23 2.37 2.49 2.58 2.67 2.83 3.09 3.08 2.95 2.90 2.94 2.93 2.85 2.69
1.74 1.74 1.65 1.62 1.61 1.49 1.43 1.39 1.42 1.46 1.42 1.45 1.44 1.40 1.25 1.22 1.18 1.10 1.11 1.24 1.28 1.47 1.79 1.93 1.95 1.96 2.01 1.99 1.99 2.01 2.02 2.10 2.14 2.18 2.27 2.38 2.49 2.61 2.60 2.58 2.57 2.59 2.56 2.52
2.07 1.87 1.82 2.04 1.94 1.76 1.55 1.50 1.58 1.54 1.46 1.47 1.50 1.53 1.36 1.28 1.26 1.15 1.17 1.30 1.43 1.52 1.69 1.84 2.01 2.13 2.15 2.08 2.12 2.13 2.03 2.00 2.02 2.07 2.12 2.13 2.20 2.26 2.29 2.17 2.05 1.94 1.89 1.88
1.86 1.75 1.73 1.82 1.82 1.69 1.57 1.58 1.71 1.76 1.66 1.55 1.54 1.53 1.43 1.32 1.29 1.26 1.27 1.34 1.46 1.48 1.57 1.70 1.86 1.98 2.18 2.33 2.40 2.40 2.29 2.20 2.12 2.04 2.05 2.07 2.08 2.15 2.14 2.04 1.90 1.73 1.62 1.55
1.88 1.84 1.85 1.77 1.74 1.61 1.47 1.52 1.63 1.61 1.65 1.61 1.59 1.56 1.47 1.32 1.31 1.38 1.38 1.46 1.58 1.63 1.66 1.73 1.86 1.93 2.05 2.32 2.47 2.50 2.43 2.33 2.16 2.04 1.99 1.98 2.00 2.03 2.12 2.20 2.11 1.91 1.69 1.50
2.23 2.11 1.99 1.96 1.90 1.76 1.54 1.49 1.54 1.55 1.50 1.56 1.63 1.71 1.67 1.57 1.49 1.49 1.46 1.48 1.61 1.71 1.78 1.86 1.87 1.90 2.04 2.18 2.34 2.37 2.28 2.15 2.01 1.96 1.96 1.97 2.03 2.06 2.04 2.09 2.07 2.01 1.85 1.67
2.20 2.11 1.95 1.95 1.97 1.92 1.80 1.71 1.72 1.70 1.64 1.62 1.64 1.69 1.71 1.73 1.64 1.55 1.49 1.51 1.68 1.72 1.68 1.80 1.89 1.89 2.00 2.21 2.31 2.33 2.33 2.28 2.09 2.00 2.09 2.14 2.14 2.17 2.15 2.21 2.23 2.14 1.92 1.70
2.12 2.12 1.96 1.81 1.84 1.88 1.82 1.74 1.70 1.73 1.73 1.65 1.57 1.52 1.49 1.52 1.65 1.65 1.57 1.51 1.61 1.73 1.76 1.85 1.91 1.89 1.99 2.16 2.34 2.32 2.24 2.21 2.12 2.00 2.07 2.22 2.24 2.24 2.23 2.25 2.23 2.19 2.02 1.84
1.82 1.89 1.83 1.73 1.64 1.64 1.66 1.61 1.66 1.71 1.74 1.68 1.59 1.52 1.53 1.62 1.81 1.96 2.02 1.96 1.85 1.78 1.75 1.78 1.81 1.84 1.90 2.01 2.08 2.09 2.09 2.02 1.88 1.74 1.81 1.92 2.00 2.04 2.08 2.06 2.08 2.07 1.99 1.82
1.65 1.77 1.76 1.69 1.67 1.54 1.59 1.58 1.60 1.63 1.63 1.70 1.69 1.65 1.60 1.66 1.80 1.96 2.15 2.22 2.11 1.96 1.84 1.76 1.84 1.78 1.85 1.93 1.91 1.89 1.87 1.82 1.71 1.55 1.56 1.71 1.78 1.85 1.92 1.89 1.87 1.84 1.75 1.66
1.80 1.85 1.76 1.62 1.70 1.75 1.71 1.70 1.70 1.72 1.59 1.55 1.58 1.66 1.76 1.79 1.89 1.99 2.03 2.07 2.06 2.01 1.91 1.76 1.62 1.58 1.64 1.76 1.87 1.82 1.78 1.77 1.73 1.52 1.49 1.65 1.75 1.85 1.85 1.80 1.80 1.78 1.68 1.64
1.76 1.74 1.66 1.53 1.55 1.56 1.51 1.52 1.55 1.66 1.73 1.64 1.71 1.82 1.90 1.88 1.92 2.09 2.22 2.12 1.85 1.79 1.74 1.72 1.61 1.60 1.58 1.71 1.80 1.77 1.76 1.76 1.81 1.70 1.63 1.66 1.74 1.82 1.77 1.70 1.67 1.65 1.65 1.69
1.72 1.69 1.68 1.65 1.61 1.53 1.41 1.36 1.43 1.54 1.65 1.76 1.84 1.91 1.96 2.01 2.06 2.08 2.03 2.08 1.93 1.94 1.81 1.68 1.61 1.63 1.62 1.60 1.61 1.69 1.72 1.74 1.83 1.80 1.74 1.76 1.87 1.93 1.93 1.85 1.77 1.71 1.68 1.70
1.69 1.73 1.69 1.68 1.71 1.64 1.49 1.42 1.38 1.48 1.59 1.63 1.73 1.95 2.05 2.03 2.11 2.33 2.14 1.79 1.70 1.79 1.76 1.71 1.70 1.65 1.55 1.39 1.48 1.63 1.67 1.72 1.75 1.71 1.63 1.60 1.63 1.67 1.67 1.59 1.57 1.59 1.60 1.59
1.76 1.71 1.69 1.69 1.69 1.59 1.54 1.50 1.48 1.52 1.48 1.47 1.57 1.77 2.00 2.10 2.01 1.92 1.93 1.84 1.66 1.56 1.46 1.51 1.53 1.49 1.51 1.43 1.51 1.63 1.68 1.73 1.72 1.64 1.57 1.53 1.54 1.56 1.54 1.52 1.50 1.50 1.52 1.55
1.77 1.70 1.64 1.64 1.69 1.69 1.60 1.58 1.62 1.61 1.55 1.56 1.56 1.63 1.74 1.90 1.99 1.83 1.61 1.52 1.46 1.32 1.22 1.25 1.25 1.30 1.31 1.34 1.37 1.47 1.65 1.76 1.75 1.60 1.49 1.49 1.49 1.47 1.42 1.37 1.40 1.49 1.52 1.50
1.81 1.78 1.74 1.69 1.65 1.66 1.64 1.69 1.83 1.84 1.87 1.94 1.81 1.67 1.70 1.71 1.72 1.77 1.66 1.48 1.38 1.30 1.16 1.18 1.17 1.15 1.14 1.23 1.26 1.30 1.44 1.63 1.70 1.62 1.46 1.46 1.44 1.43 1.42 1.40 1.34 1.36 1.39 1.39
1.88 1.84 1.77 1.71 1.66 1.57 1.66 1.77 1.88 1.94 2.03 2.13 2.12 1.94 1.81 1.68 1.66 1.70 1.67 1.61 1.47 1.33 1.27 1.24 1.20 1.17 1.15 1.15 1.12 1.12 1.23 1.38 1.46 1.50 1.53 1.54 1.55 1.55 1.50 1.43 1.34 1.29 1.30 1.30

GEFSNGP_prec_meanprecacc_348.txt.gz
Total_Precipitation_Accumulation
0.22 0.28 0.31 0.36 0.31 0.27 0.23 0.23 0.39 0.48 0.61 0.76 0.73 0.84 1.13 0.98 0.88 0.83 0.82 0.73 0.68 0.79 0.98 1.10 1.12 1.12 1.23 1.39 1.53 1.64 1.76 1.90 2.16 2.44 2.30 2.03 1.97 1.93 1.90 1.99 2.12 2.42 2.59 2.69
0.19 0.25 0.28 0.31 0.32 0.28 0.23 0.22 0.23 0.36 0.58 0.68 0.78 0.83 0.95 0.95 0.98 1.00 0.91 0.87 0.89 1.05 1.08 1.15 1.26 1.24 1.23 1.28 1.37 1.54 1.70 1.84 2.02 2.14 1.98 1.77 1.66 1.72 1.79 1.91 2.10 2.29 2.43 2.54
0.31 0.27 0.32 0.36 0.32 0.30 0.26 0.31 0.31 0.43 0.61 0.69 0.91 0.87 0.88 1.07 1.12 1.05 0.88 0.90 0.94 1.02 1.20 1.20 1.25 1.29 1.27 1.31 1.49 1.66 1.72 1.74 1.86 1.97 2.01 1.91 1.69 1.74 1.86 1.99 2.10 2.19 2.24 2.27
0.47 0.49 0.60 0.46 0.39 0.36 0.34 0.39 0.40 0.47 0.60 0.70 0.91 0.91 0.79 0.85 0.92 1.00 1.03 1.09 1.06 1.06 1.16 1.15 1.15 1.23 1.24 1.23 1.49 1.74 1.77 1.80 1.92 2.06 2.09 2.07 2.02 2.00 2.11 2.21 2.23 2.24 2.30 2.32
0.69 0.67 0.59 0.56 0.54 0.54 0.62 0.79 0.72 0.65 0.66 0.70 0.75 0.89 0.95 0.87 0.85 1.00 1.08 1.27 1.28 1.18 1.29 1.37 1.40 1.41 1.44 1.44 1.62 1.85 1.92 1.96 2.04 2.19 2.26 2.30 2.38 2.41 2.48 2.49 2.35 2.34 2.45 2.51
0.79 0.88 0.86 0.80 0.67 0.62 0.81 1.33 1.18 0.94 0.83 0.78 0.86 1.30 1.51 1.31 1.13 1.11 1.05 1.22 1.43 1.40 1.28 1.34 1.39 1.54 1.73 1.80 1.90 1.98 2.07 2.20 2.25 2.42 2.55 2.52 2.62 2.77 2.92 2.94 2.80 2.82 2.70 2.56
0.85 0.98 1.02 0.91 0.70 0.74 1.39 1.77 1.39 1.21 1.17 1.12 1.24 1.32 1.34 1.19 1.12 1.12 1.10 1.15 1.31 1.51 1.39 1.37 1.48 1.66 1.86 1.98 2.15 2.23 2.31 2.38 2.42 2.58 2.73 2.86 3.07 3.27 3.31 3.24 3.24 3.14 2.86 2.74
1.06 1.29 1.37 0.91 0.89 1.24 1.57 1.35 1.37 1.47 1.64 1.60 1.37 1.13 1.09 1.13 1.07 1.15 1.14 1.15 1.18 1.23 1.33 1.41 1.56 1.86 2.03 2.04 2.10 2.26 2.40 2.50 2.65 2.76 2.78 2.88 3.27 3.41 3.44 3.41 3.29 3.10 2.95 2.71
1.29 1.48 1.27 1.08 1.18 1.23 1.35 1.43 1.47 1.58 1.70 1.58 1.34 1.18 1.17 1.19 1.09 1.08 1.08 1.13 1.16 1.18 1.32 1.50 1.75 2.00 2.28 2.33 2.26 2.25 2.37 2.53 2.69 2.83 3.04 3.26 3.46 3.48 3.46 3.45 3.30 3.10 2.93 2.67
1.51 1.52 1.26 1.22 1.29 1.25 1.34 1.41 1.53 1.50 1.50 1.49 1.40 1.26 1.25 1.19 1.08 1.11 1.15 1.15 1.18 1.32 1.51 1.68 1.90 2.06 2.32 2.27 2.19 2.24 2.26 2.40 2.52 2.61 2.70 2.87 3.13 3.13 3.00 2.98 3.03 3.01 2.92 2.75
1.75 1.75 1.65 1.63 1.62 1.50 1.44 1.40 1.42 1.46 1.43 1.46 1.44 1.41 1.26 1.23 1.21 1.13 1.13 1.25 1.29 1.49 1.81 1.96 1.98 1.99 2.05 2.02 2.02 2.04 2.05 2.13 2.16 2.20 2.28 2.40 2.50 2.63 2.63 2.61 2.61 2.62 2.60 2.54
2.07 1.88 1.83 2.04 1.95 1.77 1.56 1.51 1.58 1.55 1.47 1.48 1.50 1.54 1.37 1.28 1.26 1.17 1.20 1.33 1.45 1.54 1.72 1.86 2.04 2.15 2.17 2.11 2.15 2.16 2.06 2.03 2.04 2.09 2.14 2.15 2.23 2.29 2.31 2.19 2.07 1.97 1.92 1.90
1.87 1.75 1.73 1.82 1.82 1.70 1.58 1.59 1.72 1.78 1.67 1.55 1.55 1.54 1.45 1.34 1.31 1.29 1.30 1.38 1.50 1.52 1.59 1.72 1.88 1.99 2.20 2.36 2.43 2.43 2.32 2.23 2.14 2.07 2.07 2.09 2.10 2.18 2.16 2.06 1.92 1.76 1.66 1.58
1.88 1.84 1.85 1.77 1.74 1.61 1.48 1.53 1.64 1.63 1.66 1.61 1.60 1.57 1.48 1.34 1.33 1.39 1.40 1.48 1.59 1.64 1.68 1.74 1.86 1.94 2.07 2.34 2.49 2.52 2.45 2.36 2.20 2.07 2.01 2.01 2.02 2.06 2.15 2.23 2.14 1.94 1.72 1.55
2.23 2.12 1.99 1.96 1.90 1.76 1.54 1.50 1.55 1.55 1.51 1.57 1.64 1.71 1.67 1.57 1.50 1.49 1.47 1.48 1.62 1.72 1.79 1.86 1.88 1.90 2.05 2.20 2.36 2.38 2.30 2.18 2.05 2.01 2.01 2.01 2.06 2.09 2.07 2.13 2.11 2.05 1.89 1.72
2.21 2.11 1.95 1.95 1.97 1.92 1.80 1.71 1.72 1.71 1.64 1.63 1.65 1.69 1.72 1.73 1.65 1.56 1.50 1.52 1.68 1.73 1.69 1.81 1.90 1.90 2.02 2.23 2.33 2.35 2.35 2.32 2.12 2.05 2.16 2.21 2.20 2.23 2.20 2.27 2.29 2.20 1.98 1.76
2.12 2.13 1.96 1.82 1.84 1.88 1.82 1.75 1.71 1.74 1.74 1.67 1.59 1.54 1.51 1.54 1.67 1.66 1.59 1.53 1.63 1.75 1.77 1.87 1.92 1.90 2.01 2.18 2.37 2.34 2.28 2.27 2.19 2.07 2.13 2.28 2.30 2.30 2.29 2.31 2.29 2.26 2.10 1.92
1.82 1.90 1.84 1.74 1.65 1.64 1.66 1.62 1.67 1.73 1.76 1.71 1.62 1.56 1.56 1.64 1.83 1.97 2.04 1.98 1.88 1.81 1.77 1.79 1.83 1.85 1.91 2.02 2.10 2.11 2.12 2.06 1.92 1.77 1.85 1.96 2.04 2.07 2.12 2.10 2.13 2.13 2.05 1.88
1.66 1.78 1.77 1.70 1.68 1.55 1.59 1.58 1.60 1.64 1.65 1.72 1.72 1.67 1.62 1.68 1.82 1.98 2.17 2.24 2.13 1.99 1.87 1.78 1.86 1.80 1.86 1.93 1.92 1.91 1.89 1.84 1.73 1.57 1.58 1.74 1.81 1.87 1.95 1.93 1.91 1.88 1.79 1.71
1.82 1.86 1.77 1.64 1.71 1.75 1.71 1.71 1.71 1.73 1.61 1.57 1.60 1.67 1.77 1.81 1.91 2.01 2.05 2.08 2.07 2.03 1.93 1.78 1.64 1.60 1.66 1.77 1.88 1.83 1.80 1.79 1.76 1.55 1.51 1.67 1.76 1.87 1.86 1.82 1.83 1.81 1.70 1.66
1.77 1.75 1.68 1.54 1.56 1.57 1.52 1.53 1.57 1.67 1.74 1.66 1.72 1.83 1.91 1.89 1.94 2.11 2.24 2.14 1.87 1.80 1.75 1.73 1.62 1.60 1.59 1.72 1.82 1.79 1.78 1.79 1.84 1.73 1.66 1.68 1.76 1.83 1.78 1.71 1.67 1.66 1.66 1.70
1.73 1.70 1.69 1.67 1.64 1.56 1.42 1.37 1.44 1.55 1.66 1.77 1.85 1.92 1.99 2.04 2.09 2.11 2.05 2.09 1.94 1.95 1.82 1.68 1.61 1.63 1.63 1.63 1.66 1.74 1.77 1.78 1.87 1.82 1.76 1.78 1.88 1.94 1.93 1.86 1.78 1.71 1.69 1.70
1.71 1.73 1.69 1.69 1.72 1.65 1.50 1.43 1.39 1.50 1.61 1.65 1.76 1.99 2.09 2.07 2.14 2.36 2.16 1.81 1.71 1.80 1.77 1.72 1.71 1.65 1.56 1.41 1.49 1.65 1.69 1.74 1.77 1.72 1.64 1.62 1.64 1.68 1.68 1.60 1.58 1.61 1.61 1.60
1.79 1.72 1.70 1.70 1.69 1.60 1.55 1.51 1.49 1.54 1.52 1.50 1.60 1.81 2.04 2.12 2.04 1.94 1.95 1.85 1.67 1.57 1.46 1.52 1.54 1.50 1.51 1.43 1.52 1.64 1.69 1.73 1.73 1.65 1.59 1.55 1.56 1.58 1.56 1.53 1.51 1.52 1.55 1.56
1.79 1.72 1.65 1.65 1.70 1.70 1.62 1.59 1.64 1.63 1.57 1.58 1.58 1.65 1.76 1.92 2.01 1.85 1.62 1.52 1.46 1.32 1.22 1.25 1.26 1.31 1.32 1.34 1.37 1.48 1.65 1.77 1.75 1.60 1.49 1.50 1.50 1.49 1.44 1.39 1.42 1.50 1.54 1.51
1.83 1.80 1.75 1.70 1.67 1.68 1.66 1.70 1.84 1.85 1.88 1.95 1.83 1.69 1.71 1.72 1.72 1.78 1.67 1.48 1.39 1.30 1.17 1.19 1.17 1.16 1.15 1.24 1.27 1.30 1.44 1.64 1.70 1.62 1.46 1.46 1.45 1.44 1.43 1.41 1.35 1.37 1.40 1.40
1.91 1.86 1.79 1.73 1.67 1.58 1.67 1.78 1.89 1.95 2.04 2.14 2.14 1.96 1.83 1.69 1.67 1.71 1.69 1.62 1.47 1.34 1.27 1.24 1.20 1.17 1.16 1.16 1.13 1.13 1.23 1.38 1.47 1.50 1.53 1.55 1.55 1.56 1.51 1.43 1.35 1.29 1.30 1.30

GEFSNGP_prec_meanprecacc_354.txt.gz
Total_Precipitation_Accumulation
0.22 0.30 0.33 0.37 0.32 0.27 0.24 0.25 0.41 0.51 0.63 0.77 0.75 0.85 1.15 0.99 0.89 0.84 0.82 0.73 0.69 0.80 1.00 1.11 1.13 1.12 1.24 1.40 1.54 1.67 1.79 1.94 2.22 2.51 2.36 2.08 2.01 1.97 1.95 2.04 2.18 2.49 2.67 2.77
0.19 0.26 0.29 0.32 0.33 0.29 0.24 0.24 0.25 0.39 0.61 0.71 0.80 0.85 0.97 0.97 0.99 1.01 0.91 0.88 0.90 1.06 1.09 1.16 1.26 1.24 1.24 1.29 1.39 1.57 1.72 1.87 2.08 2.19 2.04 1.82 1.69 1.75 1.82 1.95 2.14 2.34 2.49 2.61
0.32 0.27 0.32 0.37 0.33 0.31 0.26 0.31 0.32 0.44 0.63 0.72 0.92 0.90 0.91 1.08 1.14 1.06 0.88 0.91 0.96 1.05 1.22 1.22 1.28 1.31 1.29 1.34 1.52 1.69 1.75 1.78 1.90 2.01 2.06 1.97 1.73 1.77 1.90 2.04 2.17 2.25 2.30 2.33
0.49 0.50 0.62 0.50 0.41 0.37 0.35 0.39 0.40 0.48 0.61 0.71 0.91 0.92 0.81 0.86 0.93 1.01 1.04 1.11 1.08 1.09 1.20 1.20 1.19 1.26 1.25 1.26 1.52 1.77 1.82 1.85 1.95 2.09 2.13 2.11 2.05 2.02 2.14 2.26 2.28 2.29 2.36 2.38
0.70 0.69 0.61 0.59 0.57 0.56 0.63 0.80 0.72 0.65 0.66 0.71 0.76 0.89 0.96 0.88 0.86 1.01 1.10 1.29 1.31 1.21 1.33 1.42 1.45 1.46 1.47 1.47 1.66 1.91 1.99 2.00 2.07 2.23 2.30 2.33 2.41 2.44 2.52 2.53 2.40 2.38 2.51 2.57
0.79 0.90 0.89 0.85 0.69 0.63 0.82 1.33 1.18 0.94 0.83 0.79 0.87 1.33 1.56 1.34 1.15 1.12 1.07 1.24 1.45 1.43 1.32 1.39 1.47 1.68 1.82 1.84 1.95 2.06 2.16 2.24 2.28 2.45 2.59 2.57 2.67 2.82 2.96 2.99 2.85 2.87 2.75 2.61
0.86 1.00 1.05 0.92 0.70 0.75 1.40 1.79 1.40 1.21 1.17 1.12 1.26 1.36 1.39 1.21 1.13 1.13 1.11 1.16 1.31 1.53 1.41 1.40 1.54 1.81 1.98 2.02 2.20 2.28 2.34 2.41 2.45 2.61 2.77 2.91 3.12 3.32 3.36 3.30 3.29 3.19 2.91 2.78
1.08 1.33 1.41 0.93 0.89 1.25 1.58 1.35 1.37 1.47 1.64 1.61 1.38 1.16 1.12 1.15 1.08 1.15 1.14 1.16 1.19 1.24 1.34 1.44 1.60 1.94 2.12 2.09 2.14 2.30 2.43 2.53 2.69 2.81 2.83 2.95 3.33 3.47 3.48 3.46 3.33 3.14 2.98 2.74
1.32 1.52 1.32 1.10 1.19 1.23 1.35 1.43 1.47 1.59 1.71 1.58 1.34 1.19 1.18 1.21 1.12 1.09 1.08 1.14 1.16 1.19 1.33 1.52 1.78 2.04 2.32 2.37 2.29 2.28 2.40 2.55 2.73 2.87 3.08 3.33 3.53 3.54 3.51 3.49 3.34 3.14 2.96 2.72
1.55 1.55 1.29 1.25 1.29 1.25 1.34 1.42 1.53 1.51 1.50 1.49 1.41 1.27 1.27 1.23 1.13 1.14 1.16 1.16 1.18 1.33 1.53 1.70 1.92 2.07 2.34 2.29 2.20 2.25 2.28 2.42 2.55 2.65 2.73 2.89 3.17 3.17 3.05 3.03 3.07 3.05 2.96 2.81
1.78 1.77 1.68 1.65 1.62 1.50 1.44 1.41 1.44 1.47 1.43 1.47 1.46 1.42 1.27 1.26 1.25 1.14 1.14 1.26 1.30 1.50 1.82 1.97 1.99 2.00 2.06 2.03 2.04 2.05 2.07 2.15 2.19 2.23 2.31 2.43 2.54 2.66 2.66 2.64 2.63 2.65 2.63 2.58
2.09 1.89 1.84 2.07 1.98 1.77 1.56 1.52 1.60 1.55 1.48 1.49 1.52 1.55 1.38 1.31 1.30 1.18 1.21 1.34 1.46 1.55 1.73 1.88 2.05 2.17 2.19 2.13 2.17 2.18 2.08 2.05 2.07 2.12 2.17 2.18 2.26 2.32 2.35 2.22 2.09 1.99 1.94 1.94
1.88 1.76 1.74 1.83 1.84 1.70 1.58 1.59 1.73 1.78 1.68 1.56 1.56 1.55 1.46 1.35 1.32 1.30 1.31 1.39 1.51 1.54 1.61 1.74 1.89 2.00 2.21 2.37 2.44 2.44 2.33 2.25 2.17 2.10 2.11 2.13 2.15 2.22 2.20 2.09 1.95 1.79 1.69 1.61
1.89 1.85 1.87 1.79 1.75 1.62 1.49 1.53 1.65 1.64 1.68 1.63 1.62 1.59 1.49 1.35 1.34 1.40 1.41 1.49 1.61 1.66 1.70 1.76 1.88 1.96 2.08 2.35 2.51 2.53 2.47 2.39 2.22 2.10 2.04 2.03 2.05 2.10 2.18 2.26 2.17 1.97 1.75 1.59
2.25 2.13 2.01 1.99 1.92 1.77 1.54 1.50 1.56 1.56 1.52 1.59 1.67 1.75 1.69 1.58 1.51 1.50 1.48 1.49 1.62 1.73 1.80 1.87 1.88 1.91 2.06 2.22 2.37 2.40 2.32 2.20 2.08 2.03 2.03 2.02 2.08 2.11 2.09 2.16 2.13 2.07 1.91 1.75
2.22 2.12 1.97 1.98 2.00 1.93 1.81 1.71 1.73 1.72 1.66 1.64 1.67 1.71 1.73 1.74 1.66 1.57 1.50 1.52 1.69 1.74 1.70 1.82 1.90 1.90 2.03 2.25 2.34 2.38 2.38 2.35 2.15 2.08 2.18 2.22 2.22 2.25 2.21 2.28 2.30 2.21 2.00 1.79
2.15 2.16 1.99 1.84 1.86 1.89 1.83 1.76 1.72 1.75 1.75 1.68 1.60 1.55 1.53 1.55 1.68 1.68 1.60 1.54 1.63 1.76 1.78 1.88 1.93 1.90 2.01 2.19 2.38 2.37 2.30 2.30 2.20 2.08 2.15 2.30 2.32 2.32 2.30 2.33 2.31 2.27 2.12 1.94
1.85 1.92 1.86 1.76 1.66 1.65 1.68 1.63 1.68 1.74 1.77 1.71 1.63 1.57 1.58 1.66 1.85 1.99 2.05 1.99 1.89 1.82 1.78 1.80 1.84 1.86 1.92 2.03 2.12 2.14 2.15 2.08 1.94 1.80 1.87 1.98 2.06 2.09 2.14 2.13 2.16 2.17 2.09 1.91
1.68 1.79 1.79 1.72 1.70 1.57 1.61 1.60 1.61 1.65 1.66 1.73 1.74 1.68 1.64 1.70 1.83 1.99 2.18 2.25 2.15 2.01 1.89 1.80 1.88 1.81 1.88 1.95 1.94 1.93 1.91 1.86 1.75 1.59 1.59 1.75 1.82 1.89 1.97 1.95 1.95 1.94 1.85 1.76
1.84 1.87 1.78 1.65 1.72 1.76 1.72 1.71 1.72 1.75 1.62 1.58 1.61 1.69 1.79 1.82 1.92 2.02 2.06 2.10 2.09 2.04 1.94 1.79 1.65 1.61 1.67 1.79 1.89 1.85 1.82 1.81 1.78 1.57 1.52 1.68 1.77 1.88 1.87 1.84 1.86 1.84 1.74 1.71
1.80 1.76 1.69 1.56 1.58 1.58 1.52 1.53 1.58 1.69 1.75 1.67 1.73 1.84 1.92 1.90 1.95 2.13 2.25 2.16 1.88 1.82 1.76 1.75 1.63 1.62 1.61 1.74 1.84 1.82 1.80 1.82 1.89 1.80 1.72 1.74 1.79 1.86 1.81 1.74 1.70 1.68 1.68 1.72
1.75 1.72 1.72 1.70 1.66 1.58 1.43 1.38 1.45 1.56 1.67 1.78 1.87 1.94 2.00 2.05 2.10 2.13 2.07 2.12 1.97 1.98 1.84 1.69 1.63 1.65 1.65 1.64 1.67 1.76 1.79 1.81 1.92 1.92 1.84 1.84 1.92 1.97 1.96 1.88 1.80 1.73 1.71 1.71
1.73 1.76 1.71 1.70 1.74 1.67 1.52 1.44 1.40 1.51 1.62 1.67 1.78 2.00 2.11 2.09 2.16 2.38 2.19 1.84 1.75 1.83 1.78 1.73 1.72 1.66 1.57 1.41 1.50 1.65 1.70 1.75 1.80 1.77 1.66 1.64 1.65 1.70 1.70 1.62 1.60 1.63 1.63 1.62
1.81 1.74 1.71 1.72 1.71 1.62 1.57 1.54 1.51 1.56 1.54 1.53 1.62 1.83 2.07 2.16 2.07 1.97 1.98 1.89 1.71 1.60 1.49 1.54 1.55 1.51 1.52 1.44 1.52 1.64 1.69 1.74 1.73 1.66 1.60 1.56 1.57 1.58 1.57 1.54 1.53 1.55 1.57 1.58
1.82 1.76 1.69 1.69 1.73 1.73 1.65 1.61 1.66 1.65 1.60 1.60 1.60 1.66 1.78 1.95 2.04 1.87 1.65 1.55 1.49 1.36 1.25 1.27 1.28 1.32 1.33 1.35 1.38 1.48 1.66 1.77 1.75 1.61 1.50 1.50 1.51 1.50 1.45 1.40 1.42 1.51 1.54 1.52
1.89 1.86 1.81 1.75 1.70 1.70 1.68 1.72 1.86 1.87 1.91 1.99 1.87 1.72 1.73 1.72 1.73 1.79 1.68 1.50 1.42 1.34 1.18 1.20 1.19 1.17 1.16 1.25 1.28 1.31 1.45 1.64 1.71 1.62 1.47 1.47 1.46 1.45 1.44 1.42 1.35 1.37 1.40 1.41
1.96 1.93 1.87 1.79 1.71 1.61 1.70 1.81 1.91 1.97 2.07 2.19 2.20 2.01 1.86 1.71 1.68 1.72 1.70 1.64 1.49 1.36 1.29 1.26 1.22 1.19 1.17 1.17 1.14 1.13 1.24 1.39 1.47 1.50 1.54 1.55 1.56 1.56 1.51 1.43 1.35 1.30 1.31 1.31